カタログに戻る

STARLINK-31020

運用中通信VLEO
NORAD 58509·PAYLOAD·🇺🇸 United States

打ち上げ Dec 7, 2023 から Cape Canaveral Space Force Station

Loading…

次のパス (今後24時間)

TLE

最新Source: CelesTrak SupGP

元期: Sep 14, 2026, 21:04 UTC

1 58509C 23191B   26257.87826389 -.00009064  00000+0 -32834-3 0  2576
2 58509  43.0011 121.8493 0001278 262.7345 141.5440 15.27577405    16

AllMySatでSTARLINK-31020をリアルタイム追跡

Download on the App Store